Time,TemperatureF,DewpointF,PressureIn,WindDirection,WindDirectionDegrees,WindSpeedMPH,WindSpeedGustMPH,Humidity,HourlyPrecipIn,Conditions,Clouds,dailyrainin,SoftwareType,DateUTC
2013-08-04 00:01:00,75.5,72.0,30.10,West,275,0.0,0.0,89,0.00,CLR,OVC,0.00,WeatherDisplay:10.37,2013-08-04 04:01:00,
2013-08-04 00:02:00,75.5,72.0,30.10,West,274,1.0,1.0,89,0.00,CLR,OVC,0.00,WeatherDisplay:10.37,2013-08-04 04:02:00,
2013-08-04 00:07:00,75.4,72.3,30.10,SSW,196,1.1,1.1,90,0.00,CLR,OVC,0.00,WeatherDisplay:10.37,2013-08-04 04:07:00,
2013-08-04 00:12:00,75.3,72.2,30.09,SSW,201,2.3,2.3,90,0.00,CLR,OVC,0.00,WeatherDisplay:10.37,2013-08-04 04:12:00,
2013-08-04 00:17:00,75.3,72.2,30.09,SSW,198,2.3,2.3,90,0.00,CLR,OVC,0.00,WeatherDisplay:10.37,2013-08-04 04:17:00,
2013-08-04 00:22:00,75.3,72.2,30.09,West,260,2.3,2.3,90,0.00,CLR,OVC,0.00,WeatherDisplay:10.37,2013-08-04 04:22:00,
2013-08-04 00:27:00,75.3,72.2,30.08,WSW,240,2.3,2.3,90,0.00,CLR,OVC,0.00,WeatherDisplay:10.37,2013-08-04 04:27:00,
2013-08-04 00:31:00,75.3,72.2,30.08,West,272,2.3,2.3,90,0.00,CLR,OVC,0.00,WeatherDisplay:10.37,2013-08-04 04:31:00,
2013-08-04 00:36:00,75.2,72.1,30.08,West,281,2.3,2.3,90,0.00,CLR,OVC,0.00,WeatherDisplay:10.37,2013-08-04 04:36:00,
2013-08-04 00:42:00,75.2,72.1,30.08,West,275,3.4,3.4,90,0.00,CLR,OVC,0.00,WeatherDisplay:10.37,2013-08-04 04:42:00,
2013-08-04 00:47:00,75.2,72.1,30.08,NW,307,3.4,3.4,90,0.00,CLR,OVC,0.00,WeatherDisplay:10.37,2013-08-04 04:47:00,
2013-08-04 00:52:00,75.2,72.1,30.08,SW,230,2.3,2.3,90,0.00,CLR,OVC,0.00,WeatherDisplay:10.37,2013-08-04 04:52:00,
2013-08-04 00:57:00,75.2,72.1,30.08,WSW,250,1.1,1.1,90,0.00,CLR,OVC,0.00,WeatherDisplay:10.37,2013-08-04 04:57:00,
2013-08-04 01:02:00,75.1,72.0,30.08,WSW,250,0.0,0.0,90,0.00,CLR,OVC,0.00,WeatherDisplay:10.37,2013-08-04 05:02:00,
2013-08-04 01:07:00,75.1,72.0,30.08,SW,222,1.1,0.0,90,0.00,CLR,OVC,0.00,WeatherDisplay:10.37,2013-08-04 05:07:00,
2013-08-04 01:12:00,75.0,71.9,30.08,WSW,250,0.0,0.0,90,0.00,CLR,OVC,0.00,WeatherDisplay:10.37,2013-08-04 05:12:00,
2013-08-04 01:17:00,75.0,71.9,30.08,SW,215,1.1,0.0,90,0.00,CLR,OVC,0.00,WeatherDisplay:10.37,2013-08-04 05:17:00,
2013-08-04 01:22:00,74.9,71.8,30.08,NNW,330,1.1,1.1,90,0.00,CLR,OVC,0.00,WeatherDisplay:10.37,2013-08-04 05:22:00,
2013-08-04 01:27:00,74.8,71.7,30.07,NNW,331,1.1,1.1,90,0.00,CLR,OVC,0.00,WeatherDisplay:10.37,2013-08-04 05:27:00,
2013-08-04 01:32:00,74.7,71.6,30.07,NNW,331,0.0,0.0,90,0.00,CLR,OVC,0.00,WeatherDisplay:10.37,2013-08-04 05:32:00,
2013-08-04 01:37:00,74.7,71.6,30.07,NW,320,1.1,1.1,90,0.00,CLR,OVC,0.00,WeatherDisplay:10.37,2013-08-04 05:37:00,
2013-08-04 01:42:00,74.6,71.5,30.07,NW,320,1.1,1.1,90,0.00,CLR,OVC,0.00,WeatherDisplay:10.37,2013-08-04 05:42:00,
2013-08-04 01:47:00,74.5,71.4,30.07,NW,320,0.0,0.0,90,0.00,CLR,OVC,0.00,WeatherDisplay:10.37,2013-08-04 05:47:00,
2013-08-04 01:52:00,74.5,71.4,30.07,NW,320,0.0,0.0,90,0.00,CLR,OVC,0.00,WeatherDisplay:10.37,2013-08-04 05:52:00,
2013-08-04 01:57:00,74.5,71.4,30.07,NW,322,0.0,0.0,90,0.00,CLR,OVC,0.00,WeatherDisplay:10.37,2013-08-04 05:57:00,
2013-08-04 02:02:00,74.5,71.4,30.06,NW,315,1.1,1.1,90,0.00,CLR,OVC,0.00,WeatherDisplay:10.37,2013-08-04 06:02:00,
2013-08-04 02:06:00,74.5,71.7,30.07,WSW,247,1.1,1.1,91,0.00,CLR,OVC,0.00,WeatherDisplay:10.37,2013-08-04 06:06:00,
2013-08-04 02:12:00,74.5,71.7,30.06,WSW,246,1.1,1.1,91,0.00,CLR,OVC,0.00,WeatherDisplay:10.37,2013-08-04 06:12:00,
2013-08-04 02:17:00,74.5,71.7,30.06,WSW,247,1.1,1.1,91,0.00,CLR,OVC,0.00,WeatherDisplay:10.37,2013-08-04 06:17:00,
2013-08-04 02:22:00,74.4,71.6,30.06,WSW,246,0.0,0.0,91,0.00,CLR,OVC,0.00,WeatherDisplay:10.37,2013-08-04 06:22:00,
2013-08-04 02:27:00,74.4,71.6,30.06,WSW,246,0.0,0.0,91,0.00,CLR,OVC,0.00,WeatherDisplay:10.37,2013-08-04 06:27:00,
2013-08-04 02:32:00,74.4,71.6,30.06,WSW,246,0.0,0.0,91,0.00,CLR,OVC,0.00,WeatherDisplay:10.37,2013-08-04 06:32:00,
2013-08-04 02:37:00,74.3,71.5,30.06,WSW,246,0.0,0.0,91,0.00,CLR,OVC,0.00,WeatherDisplay:10.37,2013-08-04 06:37:00,
2013-08-04 02:42:00,74.5,71.7,30.06,WSW,246,0.0,0.0,91,0.00,CLR,OVC,0.00,WeatherDisplay:10.37,2013-08-04 06:42:00,
2013-08-04 02:47:00,74.5,71.7,30.06,WSW,239,0.0,0.3,91,0.00,CLR,OVC,0.00,WeatherDisplay:10.37,2013-08-04 06:47:00,
2013-08-04 02:52:00,74.6,71.8,30.06,WSW,239,1.1,0.0,91,0.00,CLR,OVC,0.00,WeatherDisplay:10.37,2013-08-04 06:52:00,
2013-08-04 02:57:00,74.5,71.7,30.06,WSW,238,0.0,0.0,91,0.00,CLR,OVC,0.00,WeatherDisplay:10.37,2013-08-04 06:57:00,
2013-08-04 03:02:00,74.5,71.7,30.05,WSW,239,0.0,0.0,91,0.00,CLR,OVC,0.00,WeatherDisplay:10.37,2013-08-04 07:02:00,
2013-08-04 03:07:00,74.6,71.8,30.05,WSW,239,1.1,1.1,91,0.00,CLR,OVC,0.00,WeatherDisplay:10.37,2013-08-04 07:07:00,
2013-08-04 03:12:00,74.6,71.8,30.05,WSW,239,0.0,0.0,91,0.00,CLR,OVC,0.00,WeatherDisplay:10.37,2013-08-04 07:12:00,
2013-08-04 03:17:00,74.6,71.8,30.05,WSW,239,0.0,0.0,91,0.00,CLR,OVC,0.00,WeatherDisplay:10.37,2013-08-04 07:17:00,
2013-08-04 03:22:00,74.5,71.7,30.05,WSW,239,0.0,0.0,91,0.00,CLR,OVC,0.00,WeatherDisplay:10.37,2013-08-04 07:22:00,
2013-08-04 03:26:00,74.4,71.6,30.05,WSW,239,0.0,0.0,91,0.00,CLR,OVC,0.00,WeatherDisplay:10.37,2013-08-04 07:26:00,
2013-08-04 03:31:00,74.4,71.6,30.04,WSW,239,0.0,0.0,91,0.00,CLR,OVC,0.00,WeatherDisplay:10.37,2013-08-04 07:31:00,
2013-08-04 03:37:00,74.4,71.6,30.05,WSW,239,0.0,0.0,91,0.00,CLR,OVC,0.00,WeatherDisplay:10.37,2013-08-04 07:37:00,
2013-08-04 03:41:00,74.4,71.6,30.04,SW,230,1.1,1.1,91,0.00,CLR,OVC,0.00,WeatherDisplay:10.37,2013-08-04 07:41:00,
2013-08-04 03:47:00,74.5,71.7,30.05,SW,229,1.1,1.1,91,0.00,CLR,OVC,0.00,WeatherDisplay:10.37,2013-08-04 07:47:00,
2013-08-04 03:52:00,74.4,71.6,30.04,SW,228,1.1,0.0,91,0.00,CLR,OVC,0.00,WeatherDisplay:10.37,2013-08-04 07:52:00,
2013-08-04 03:57:00,74.4,71.6,30.04,SW,228,0.0,0.0,91,0.00,CLR,OVC,0.00,WeatherDisplay:10.37,2013-08-04 07:57:00,
2013-08-04 04:02:00,74.4,71.6,30.04,SW,230,0.0,0.0,91,0.00,FEW,OVC,0.00,WeatherDisplay:10.37,2013-08-04 08:02:00,
2013-08-04 04:07:00,74.4,71.6,30.04,SW,230,1.1,1.1,91,0.00,FEW,OVC,0.00,WeatherDisplay:10.37,2013-08-04 08:07:00,
2013-08-04 04:11:00,74.3,71.5,30.04,SW,229,0.0,0.0,91,0.00,FEW,OVC,0.00,WeatherDisplay:10.37,2013-08-04 08:11:00,
2013-08-04 04:17:00,74.4,71.9,30.04,SW,230,0.0,0.0,92,0.00,FEW,OVC,0.00,WeatherDisplay:10.37,2013-08-04 08:17:00,
2013-08-04 04:21:00,74.4,71.9,30.04,SW,229,0.0,0.0,92,0.00,FEW,OVC,0.00,WeatherDisplay:10.37,2013-08-04 08:21:00,
2013-08-04 04:27:00,74.4,71.9,30.04,WSW,250,0.0,0.0,92,0.00,FEW,OVC,0.00,WeatherDisplay:10.37,2013-08-04 08:27:00,
2013-08-04 04:32:00,74.4,71.9,30.04,WSW,250,0.0,0.0,92,0.00,FEW,OVC,0.00,WeatherDisplay:10.37,2013-08-04 08:32:00,
2013-08-04 04:36:00,74.3,71.8,30.04,WSW,250,0.0,0.0,92,0.00,FEW,OVC,0.00,WeatherDisplay:10.37,2013-08-04 08:36:00,
2013-08-04 04:42:00,74.2,71.7,30.03,NW,313,1.1,1.1,92,0.00,FEW,OVC,0.00,WeatherDisplay:10.37,2013-08-04 08:42:00,
2013-08-04 04:46:00,74.3,71.8,30.03,North,360,1.1,1.1,92,0.00,FEW,OVC,0.00,WeatherDisplay:10.37,2013-08-04 08:46:00,
2013-08-04 04:51:00,74.2,71.7,30.04,WSW,241,0.0,0.0,92,0.00,FEW,OVC,0.00,WeatherDisplay:10.37,2013-08-04 08:51:00,
2013-08-04 04:57:00,74.1,71.6,30.03,WSW,241,0.0,0.0,92,0.00,FEW,OVC,0.00,WeatherDisplay:10.37,2013-08-04 08:57:00,
2013-08-04 05:02:00,74.1,71.6,30.04,WSW,241,0.0,0.0,92,0.00,CLR,OVC,0.00,WeatherDisplay:10.37,2013-08-04 09:02:00,
2013-08-04 05:06:00,74.1,71.6,30.03,WSW,241,0.0,0.0,92,0.00,CLR,OVC,0.00,WeatherDisplay:10.37,2013-08-04 09:06:00,
2013-08-04 05:12:00,74.1,71.6,30.04,WSW,240,0.0,0.0,92,0.00,CLR,OVC,0.00,WeatherDisplay:10.37,2013-08-04 09:12:00,
2013-08-04 05:17:00,74.1,71.6,30.04,WSW,240,0.0,0.0,92,0.00,CLR,OVC,0.00,WeatherDisplay:10.37,2013-08-04 09:17:00,
2013-08-04 05:22:00,74.1,71.6,30.04,WSW,240,0.0,0.0,92,0.00,CLR,OVC,0.00,WeatherDisplay:10.37,2013-08-04 09:22:00,
2013-08-04 05:27:00,74.0,71.5,30.04,WSW,240,0.0,0.0,92,0.00,CLR,OVC,0.00,WeatherDisplay:10.37,2013-08-04 09:27:00,
2013-08-04 05:29:00,74.0,71.5,30.04,WSW,243,0.0,0.0,92,0.00,CLR,OVC,0.00,WeatherDisplay:10.37,2013-08-04 09:29:00,
2013-08-04 05:32:00,74.0,71.5,30.04,WSW,243,0.0,0.0,92,0.00,CLR,OVC,0.00,WeatherDisplay:10.37,2013-08-04 09:32:00,
2013-08-04 05:37:00,74.0,71.5,30.04,WSW,243,0.0,0.0,92,0.00,CLR,OVC,0.00,WeatherDisplay:10.37,2013-08-04 09:37:00,
2013-08-04 05:44:00,73.8,71.3,30.04,WSW,241,0.0,0.0,92,0.00,CLR,OVC,0.00,WeatherDisplay:10.37,2013-08-04 09:44:00,
2013-08-04 05:49:00,73.9,71.4,30.04,WSW,241,0.0,0.0,92,0.00,CLR,OVC,0.00,WeatherDisplay:10.37,2013-08-04 09:49:00,
2013-08-04 05:54:00,74.0,71.5,30.04,WSW,240,0.0,0.0,92,0.00,CLR,OVC,0.00,WeatherDisplay:10.37,2013-08-04 09:54:00,
2013-08-04 05:59:00,74.0,71.5,30.04,WSW,241,0.0,0.0,92,0.00,CLR,OVC,0.00,WeatherDisplay:10.37,2013-08-04 09:59:00,
2013-08-04 06:04:00,74.1,71.6,30.05,WSW,241,0.0,0.0,92,0.00,CLR,OVC,0.00,WeatherDisplay:10.37,2013-08-04 10:04:00,
2013-08-04 06:09:00,74.1,71.6,30.04,WSW,241,0.0,0.0,92,0.00,CLR,OVC,0.00,WeatherDisplay:10.37,2013-08-04 10:09:00,
2013-08-04 06:14:00,74.1,71.6,30.05,WSW,240,0.0,0.0,92,0.00,CLR,OVC,0.00,WeatherDisplay:10.37,2013-08-04 10:14:00,
2013-08-04 06:19:00,74.1,71.6,30.05,WSW,241,0.0,0.0,92,0.00,CLR,OVC,0.00,WeatherDisplay:10.37,2013-08-04 10:19:00,
2013-08-04 06:24:00,74.3,71.8,30.05,WSW,240,1.1,1.1,92,0.00,CLR,OVC,0.00,WeatherDisplay:10.37,2013-08-04 10:24:00,
2013-08-04 06:29:00,74.4,71.9,30.05,SW,226,1.1,0.0,92,0.00,CLR,OVC,0.00,WeatherDisplay:10.37,2013-08-04 10:29:00,
2013-08-04 06:34:00,74.5,72.0,30.05,SW,226,1.1,0.0,92,0.01,RA,OVC,0.01,WeatherDisplay:10.37,2013-08-04 10:34:00,
2013-08-04 06:39:00,74.4,71.9,30.05,SW,224,0.0,0.0,92,0.01,RA,OVC,0.01,WeatherDisplay:10.37,2013-08-04 10:39:00,
2013-08-04 06:44:00,74.5,72.0,30.05,SSW,197,1.1,0.0,92,0.01,CLR,OVC,0.01,WeatherDisplay:10.37,2013-08-04 10:44:00,
2013-08-04 06:49:00,74.5,72.0,30.05,SSW,204,1.1,0.0,92,0.01,CLR,OVC,0.01,WeatherDisplay:10.37,2013-08-04 10:49:00,
2013-08-04 06:54:00,74.5,72.0,30.06,SW,220,1.0,1.0,92,0.01,CLR,OVC,0.01,WeatherDisplay:10.37,2013-08-04 10:54:00,
2013-08-04 06:59:00,74.5,72.0,30.06,SW,229,1.1,1.1,92,0.01,CLR,OVC,0.01,WeatherDisplay:10.37,2013-08-04 10:59:00,
2013-08-04 07:04:00,74.7,72.2,30.06,SSE,162,2.3,0.0,92,0.01,FEW,OVC,0.01,WeatherDisplay:10.37,2013-08-04 11:04:00,
2013-08-04 07:09:00,74.8,72.3,30.06,SSE,166,1.1,1.1,92,0.01,FEW,OVC,0.01,WeatherDisplay:10.37,2013-08-04 11:09:00,
2013-08-04 07:14:00,74.9,72.4,30.06,SSW,203,0.0,0.0,92,0.01,FEW,OVC,0.01,WeatherDisplay:10.37,2013-08-04 11:14:00,
2013-08-04 07:19:00,74.9,72.4,30.06,SSW,204,0.0,0.0,92,0.01,FEW,OVC,0.01,WeatherDisplay:10.37,2013-08-04 11:19:00,
2013-08-04 07:24:00,75.0,72.5,30.06,SW,226,1.1,0.0,92,0.01,FEW,OVC,0.01,WeatherDisplay:10.37,2013-08-04 11:24:00,
2013-08-04 07:29:00,75.1,72.6,30.06,West,281,1.1,1.1,92,0.01,FEW,OVC,0.01,WeatherDisplay:10.37,2013-08-04 11:29:00,
2013-08-04 07:34:00,75.4,73.2,30.06,South,170,2.3,2.3,93,0.00,FEW,OVC,0.01,WeatherDisplay:10.37,2013-08-04 11:34:00,
2013-08-04 07:39:00,75.6,73.4,30.06,WNW,285,1.1,1.1,93,0.00,FEW,OVC,0.01,WeatherDisplay:10.37,2013-08-04 11:39:00,
2013-08-04 07:44:00,75.8,73.6,30.06,SSW,196,1.1,1.1,93,0.00,FEW,OVC,0.01,WeatherDisplay:10.37,2013-08-04 11:44:00,
2013-08-04 07:49:00,76.1,73.9,30.07,West,275,3.4,3.4,93,0.00,FEW,OVC,0.01,WeatherDisplay:10.37,2013-08-04 11:49:00,
2013-08-04 07:54:00,76.3,74.1,30.07,SW,227,1.1,1.1,93,0.00,FEW,OVC,0.01,WeatherDisplay:10.37,2013-08-04 11:54:00,
2013-08-04 07:59:00,76.6,74.4,30.07,SW,219,1.1,1.1,93,0.00,FEW,OVC,0.01,WeatherDisplay:10.37,2013-08-04 11:59:00,
2013-08-04 08:04:00,77.0,74.5,30.07,West,263,3.4,3.4,92,0.00,BKN,OVC,0.01,WeatherDisplay:10.37,2013-08-04 12:04:00,
2013-08-04 08:09:00,77.5,75.0,30.07,WSW,237,3.4,3.4,92,0.00,BKN,OVC,0.01,WeatherDisplay:10.37,2013-08-04 12:09:00,
2013-08-04 08:14:00,77.7,75.2,30.07,WSW,250,3.4,3.4,92,0.00,BKN,OVC,0.01,WeatherDisplay:10.37,2013-08-04 12:14:00,
2013-08-04 08:19:00,78.0,75.2,30.07,SW,214,3.4,3.4,91,0.00,BKN,OVC,0.01,WeatherDisplay:10.37,2013-08-04 12:19:00,
2013-08-04 08:24:00,78.2,75.0,30.07,South,190,3.4,3.4,90,0.00,BKN,OVC,0.01,WeatherDisplay:10.37,2013-08-04 12:24:00,
2013-08-04 08:29:00,78.3,75.1,30.07,South,186,2.3,2.3,90,0.00,BKN,OVC,0.01,WeatherDisplay:10.37,2013-08-04 12:29:00,
2013-08-04 08:34:00,78.3,75.1,30.07,WSW,246,2.3,0.0,90,0.00,BKN,OVC,0.01,WeatherDisplay:10.37,2013-08-04 12:34:00,
2013-08-04 08:39:00,78.4,75.2,30.07,SW,225,3.4,3.4,90,0.00,BKN,OVC,0.01,WeatherDisplay:10.37,2013-08-04 12:39:00,
2013-08-04 08:44:00,78.5,75.3,30.07,SSE,167,4.0,4.0,90,0.00,BKN,OVC,0.01,WeatherDisplay:10.37,2013-08-04 12:44:00,
2013-08-04 08:49:00,79.0,75.8,30.08,South,185,2.3,2.3,90,0.00,BKN,OVC,0.01,WeatherDisplay:10.37,2013-08-04 12:49:00,
2013-08-04 08:54:00,79.6,76.1,30.08,SW,227,2.3,2.3,89,0.00,BKN,OVC,0.01,WeatherDisplay:10.37,2013-08-04 12:54:00,
2013-08-04 08:59:00,80.4,76.9,30.07,WSW,254,2.3,2.3,89,0.00,BKN,OVC,0.01,WeatherDisplay:10.37,2013-08-04 12:59:00,
2013-08-04 09:04:00,80.8,77.3,30.07,West,274,3.4,3.4,89,0.00,CLR,OVC,0.01,WeatherDisplay:10.37,2013-08-04 13:04:00,
2013-08-04 09:09:00,81.1,77.2,30.07,WSW,244,4.6,4.6,88,0.00,CLR,OVC,0.01,WeatherDisplay:10.37,2013-08-04 13:09:00,
2013-08-04 09:14:00,81.5,77.6,30.08,SSW,206,2.3,2.3,88,0.00,CLR,OVC,0.01,WeatherDisplay:10.37,2013-08-04 13:14:00,
2013-08-04 09:19:00,81.9,77.6,30.07,WNW,289,2.3,2.3,87,0.00,CLR,OVC,0.01,WeatherDisplay:10.37,2013-08-04 13:19:00,
2013-08-04 09:24:00,82.5,78.2,30.07,WNW,286,1.1,1.1,87,0.00,CLR,OVC,0.01,WeatherDisplay:10.37,2013-08-04 13:24:00,
2013-08-04 09:29:00,83.3,78.7,30.07,SSE,165,2.3,2.3,86,0.00,CLR,OVC,0.01,WeatherDisplay:10.37,2013-08-04 13:29:00,
2013-08-04 09:34:00,83.7,78.7,30.07,West,277,3.4,3.4,85,0.00,CLR,OVC,0.01,WeatherDisplay:10.37,2013-08-04 13:34:00,
2013-08-04 09:39:00,84.0,78.3,30.08,West,271,5.8,5.8,83,0.00,CLR,OVC,0.01,WeatherDisplay:10.37,2013-08-04 13:39:00,
2013-08-04 09:44:00,84.5,79.1,30.08,NW,306,4.6,4.6,84,0.00,CLR,OVC,0.01,WeatherDisplay:10.37,2013-08-04 13:44:00,
2013-08-04 09:49:00,84.6,78.9,30.07,WSW,237,5.8,5.8,83,0.00,CLR,OVC,0.01,WeatherDisplay:10.37,2013-08-04 13:49:00,
2013-08-04 09:54:00,84.9,78.8,30.07,WSW,243,4.6,4.6,82,0.00,CLR,OVC,0.01,WeatherDisplay:10.37,2013-08-04 13:54:00,
2013-08-04 09:59:00,85.2,78.7,30.07,WSW,258,4.6,4.6,81,0.00,CLR,OVC,0.01,WeatherDisplay:10.37,2013-08-04 13:59:00,
2013-08-04 10:04:00,85.6,79.1,30.08,SW,222,6.0,6.0,81,0.00,FEW,OVC,0.01,WeatherDisplay:10.37,2013-08-04 14:04:00,
2013-08-04 10:09:00,85.9,79.4,30.08,WSW,251,5.0,5.0,81,0.00,FEW,OVC,0.01,WeatherDisplay:10.37,2013-08-04 14:09:00,
2013-08-04 10:14:00,85.7,78.8,30.08,NW,323,5.8,5.8,80,0.00,FEW,OVC,0.01,WeatherDisplay:10.37,2013-08-04 14:14:00,
2013-08-04 10:19:00,85.8,79.3,30.08,SW,236,3.4,3.4,81,0.00,FEW,OVC,0.01,WeatherDisplay:10.37,2013-08-04 14:19:00,
2013-08-04 10:24:00,85.9,78.6,30.08,West,263,3.4,3.4,79,0.00,FEW,OVC,0.01,WeatherDisplay:10.37,2013-08-04 14:24:00,
2013-08-04 10:29:00,86.2,78.9,30.08,WSW,240,6.9,6.9,79,0.00,FEW,OVC,0.01,WeatherDisplay:10.37,2013-08-04 14:29:00,
2013-08-04 10:34:00,86.2,79.3,30.08,WSW,256,5.8,5.8,80,0.00,FEW,OVC,0.01,WeatherDisplay:10.37,2013-08-04 14:34:00,
2013-08-04 10:39:00,86.8,79.5,30.08,WNW,294,6.0,6.0,79,0.00,FEW,OVC,0.01,WeatherDisplay:10.37,2013-08-04 14:39:00,
2013-08-04 10:43:00,86.8,78.7,30.08,West,270,6.0,6.0,77,0.00,FEW,OVC,0.01,WeatherDisplay:10.37,2013-08-04 14:43:00,
2013-08-04 10:44:00,86.8,78.7,30.08,West,270,6.0,6.0,77,0.00,FEW,OVC,0.01,WeatherDisplay:10.37,2013-08-04 14:44:00,
2013-08-04 10:49:00,86.8,78.7,30.08,West,270,6.0,6.0,77,0.00,FEW,OVC,0.01,WeatherDisplay:10.37,2013-08-04 14:49:00,
2013-08-04 10:54:00,86.4,78.7,30.08,WSW,251,9.0,9.0,78,0.00,RA,OVC,0.01,WeatherDisplay:10.37,2013-08-04 14:54:00,
2013-08-04 11:00:00,87.0,79.7,30.08,North,9,3.4,3.4,79,0.00,FEW,OVC,0.01,WeatherDisplay:10.37,2013-08-04 15:00:00,
2013-08-04 11:04:00,87.2,78.3,30.08,NNW,329,3.4,3.4,75,0.00,BKN,OVC,0.01,WeatherDisplay:10.37,2013-08-04 15:04:00,
2013-08-04 11:10:00,86.7,78.6,30.08,SW,236,6.9,6.9,77,0.00,BKN,OVC,0.01,WeatherDisplay:10.37,2013-08-04 15:10:00,
2013-08-04 11:15:00,87.2,79.5,30.08,WNW,285,6.0,6.0,78,0.00,BKN,OVC,0.01,WeatherDisplay:10.37,2013-08-04 15:15:00,
2013-08-04 11:19:00,86.5,78.0,30.08,West,267,6.0,6.0,76,0.00,BKN,OVC,0.01,WeatherDisplay:10.37,2013-08-04 15:19:00,
2013-08-04 11:25:00,86.5,79.2,30.08,WSW,253,5.8,5.8,79,0.00,BKN,OVC,0.01,WeatherDisplay:10.37,2013-08-04 15:25:00,
2013-08-04 11:30:00,87.4,79.7,30.07,WNW,282,5.0,5.0,78,0.00,BKN,OVC,0.01,WeatherDisplay:10.37,2013-08-04 15:30:00,
2013-08-04 11:34:00,88.0,79.1,30.07,SW,232,5.8,5.8,75,0.00,BKN,OVC,0.01,WeatherDisplay:10.37,2013-08-04 15:34:00,
2013-08-04 11:40:00,88.0,79.5,30.06,WSW,258,4.6,4.6,76,0.00,BKN,OVC,0.01,WeatherDisplay:10.37,2013-08-04 15:40:00,
2013-08-04 11:44:00,87.0,78.1,30.06,South,187,3.4,3.4,75,0.00,BKN,OVC,0.01,WeatherDisplay:10.37,2013-08-04 15:44:00,
2013-08-04 11:50:00,86.4,77.9,30.07,West,279,4.6,4.6,76,0.00,BKN,OVC,0.01,WeatherDisplay:10.37,2013-08-04 15:50:00,
2013-08-04 11:55:00,86.1,77.6,30.07,WSW,250,5.8,5.8,76,0.00,BKN,OVC,0.01,WeatherDisplay:10.37,2013-08-04 15:55:00,
2013-08-04 12:00:00,85.7,77.7,30.07,NW,309,8.1,8.1,77,0.00,BKN,OVC,0.01,WeatherDisplay:10.37,2013-08-04 16:00:00,
2013-08-04 12:05:00,85.9,77.8,30.07,West,278,8.1,8.1,77,0.00,BKN,OVC,0.01,WeatherDisplay:10.37,2013-08-04 16:05:00,
2013-08-04 12:09:00,85.5,77.5,30.06,SW,230,8.1,8.1,77,0.00,BKN,OVC,0.01,WeatherDisplay:10.37,2013-08-04 16:09:00,
2013-08-04 12:14:00,85.5,78.2,30.06,SW,225,3.4,3.4,79,0.00,BKN,OVC,0.01,WeatherDisplay:10.37,2013-08-04 16:14:00,
2013-08-04 12:19:00,85.4,77.0,30.06,SW,222,3.4,3.4,76,0.00,BKN,OVC,0.01,WeatherDisplay:10.37,2013-08-04 16:19:00,
2013-08-04 12:25:00,85.5,77.5,30.06,SW,220,3.4,3.4,77,0.00,BKN,OVC,0.01,WeatherDisplay:10.37,2013-08-04 16:25:00,
2013-08-04 12:30:00,85.7,78.0,30.07,WSW,246,3.4,3.4,78,0.00,BKN,OVC,0.01,WeatherDisplay:10.37,2013-08-04 16:30:00,
2013-08-04 12:35:00,86.7,79.0,30.06,SSW,206,3.4,3.4,78,0.00,CLR,OVC,0.01,WeatherDisplay:10.37,2013-08-04 16:35:00,
2013-08-04 12:40:00,87.4,78.5,30.05,SW,215,4.6,4.6,75,0.00,CLR,OVC,0.01,WeatherDisplay:10.37,2013-08-04 16:40:00,
2013-08-04 12:45:00,87.4,78.9,30.05,South,172,5.8,5.8,76,0.00,CLR,OVC,0.01,WeatherDisplay:10.37,2013-08-04 16:45:00,
2013-08-04 12:50:00,87.4,78.9,30.05,SW,216,3.4,3.4,76,0.00, +RA,OVC,0.01,WeatherDisplay:10.37,2013-08-04 16:50:00,
2013-08-04 12:55:00,87.6,79.1,30.05,WSW,237,4.0,4.0,76,0.00, +RA,OVC,0.01,WeatherDisplay:10.37,2013-08-04 16:55:00,
2013-08-04 13:00:00,88.2,79.3,30.05,SW,220,5.8,5.8,75,0.00, +RA,OVC,0.01,WeatherDisplay:10.37,2013-08-04 17:00:00,
2013-08-04 13:05:00,88.5,78.7,30.05,SW,234,5.8,5.8,73,0.00,-RA,OVC,0.01,WeatherDisplay:10.37,2013-08-04 17:05:00,
2013-08-04 13:10:00,88.7,79.3,30.05,SW,235,6.9,6.9,74,0.00,-RA,OVC,0.01,WeatherDisplay:10.37,2013-08-04 17:10:00,
2013-08-04 13:15:00,88.8,78.6,30.05,West,260,12.0,12.0,72,0.00,-RA,OVC,0.01,WeatherDisplay:10.37,2013-08-04 17:15:00,
2013-08-04 13:20:00,84.8,77.2,30.06,West,279,9.2,9.2,78,0.06,-RA,OVC,0.07,WeatherDisplay:10.37,2013-08-04 17:20:00,
2013-08-04 13:25:00,82.5,76.1,30.06,NW,326,4.0,4.0,81,0.07,-RA,OVC,0.08,WeatherDisplay:10.37,2013-08-04 17:25:00,
2013-08-04 13:30:00,81.6,76.6,30.06,WNW,295,3.4,3.4,85,0.07,-RA,OVC,0.08,WeatherDisplay:10.37,2013-08-04 17:30:00,
2013-08-04 13:35:00,81.0,76.1,30.05,WSW,244,3.4,3.4,85,0.07,-RA,OVC,0.08,WeatherDisplay:10.37,2013-08-04 17:35:00,
2013-08-04 13:40:00,80.7,76.1,30.05,South,171,5.8,5.8,86,0.07,-RA,OVC,0.08,WeatherDisplay:10.37,2013-08-04 17:40:00,
2013-08-04 13:45:00,80.2,75.6,30.05,SW,220,3.4,3.4,86,0.07,-RA,OVC,0.08,WeatherDisplay:10.37,2013-08-04 17:45:00,
2013-08-04 13:50:00,79.6,75.0,30.05,WSW,239,3.4,3.4,86,0.07,-RA,OVC,0.08,WeatherDisplay:10.37,2013-08-04 17:50:00,
2013-08-04 13:55:00,79.3,75.1,30.05,SSW,196,3.4,3.4,87,0.07,-RA,OVC,0.08,WeatherDisplay:10.37,2013-08-04 17:55:00,
2013-08-04 14:00:00,79.2,74.6,30.05,SW,225,3.4,3.4,86,0.07,-RA,OVC,0.08,WeatherDisplay:10.37,2013-08-04 18:00:00,
2013-08-04 14:05:00,79.1,74.5,30.04,South,189,2.3,2.3,86,0.07,SCT,OVC,0.08,WeatherDisplay:10.37,2013-08-04 18:05:00,
2013-08-04 14:10:00,79.1,74.5,30.04,SW,219,2.3,2.3,86,0.07,SCT,OVC,0.08,WeatherDisplay:10.37,2013-08-04 18:10:00,
2013-08-04 14:15:00,78.8,74.3,30.04,SSE,161,2.0,2.0,86,0.07,SCT,OVC,0.08,WeatherDisplay:10.37,2013-08-04 18:15:00,
2013-08-04 14:20:00,78.8,74.3,30.04,SSW,201,2.3,2.3,86,0.01,SCT,OVC,0.08,WeatherDisplay:10.37,2013-08-04 18:20:00,
2013-08-04 14:25:00,78.9,74.4,30.04,WSW,240,2.3,2.3,86,0.00,SCT,OVC,0.08,WeatherDisplay:10.37,2013-08-04 18:25:00,
2013-08-04 14:30:00,78.9,74.4,30.03,SSW,201,1.1,1.1,86,0.00,SCT,OVC,0.08,WeatherDisplay:10.37,2013-08-04 18:30:00,
2013-08-04 14:35:00,78.9,74.4,30.03,SSW,204,1.1,0.0,86,0.00,SCT,OVC,0.08,WeatherDisplay:10.37,2013-08-04 18:35:00,
2013-08-04 14:40:00,78.9,74.4,30.02,WSW,239,3.4,3.4,86,0.00,SCT,OVC,0.08,WeatherDisplay:10.37,2013-08-04 18:40:00,
2013-08-04 14:45:00,79.0,74.8,30.02,WSW,240,1.1,1.1,87,0.00,SCT,OVC,0.08,WeatherDisplay:10.37,2013-08-04 18:45:00,
2013-08-04 14:50:00,79.2,75.0,30.01,NW,310,2.3,2.3,87,0.00,SCT,OVC,0.08,WeatherDisplay:10.37,2013-08-04 18:50:00,
2013-08-04 14:55:00,79.3,75.1,30.01,WNW,301,2.3,2.3,87,0.00,SCT,OVC,0.08,WeatherDisplay:10.37,2013-08-04 18:55:00,
2013-08-04 15:00:00,79.5,75.3,30.02,WSW,257,0.0,0.0,87,0.00,SCT,OVC,0.08,WeatherDisplay:10.37,2013-08-04 19:00:00,
2013-08-04 15:05:00,79.7,75.5,30.02,WSW,257,0.0,0.0,87,0.00,CLR,OVC,0.08,WeatherDisplay:10.37,2013-08-04 19:05:00,
2013-08-04 15:10:00,80.1,75.9,30.02,South,182,1.1,1.1,87,0.00,CLR,OVC,0.08,WeatherDisplay:10.37,2013-08-04 19:10:00,
2013-08-04 15:15:00,80.4,76.2,30.02,South,173,1.1,0.0,87,0.00,CLR,OVC,0.08,WeatherDisplay:10.37,2013-08-04 19:15:00,
2013-08-04 15:20:00,80.9,76.7,30.02,SSE,156,1.1,1.2,87,0.00,CLR,OVC,0.08,WeatherDisplay:10.37,2013-08-04 19:20:00,
2013-08-04 15:25:00,81.4,76.5,30.02,SE,140,3.0,3.0,85,0.00,CLR,OVC,0.08,WeatherDisplay:10.37,2013-08-04 19:25:00,
2013-08-04 15:30:00,81.8,77.2,30.02,SSW,208,1.1,1.1,86,0.00,CLR,OVC,0.08,WeatherDisplay:10.37,2013-08-04 19:30:00,
2013-08-04 15:35:00,82.6,77.6,30.02,SSE,165,3.4,3.4,85,0.00,CLR,OVC,0.08,WeatherDisplay:10.37,2013-08-04 19:35:00,
2013-08-04 15:40:00,83.4,78.1,30.02,South,180,1.1,1.1,84,0.00,CLR,OVC,0.08,WeatherDisplay:10.37,2013-08-04 19:40:00,
2013-08-04 15:44:00,84.4,78.3,30.01,South,186,3.4,3.4,82,0.00,CLR,OVC,0.08,WeatherDisplay:10.37,2013-08-04 19:44:00,
2013-08-04 15:50:00,85.0,78.5,30.01,SW,236,4.0,4.0,81,0.00,CLR,OVC,0.08,WeatherDisplay:10.37,2013-08-04 19:50:00,
2013-08-04 15:54:00,85.6,77.9,30.01,West,277,6.9,6.9,78,0.00,CLR,OVC,0.08,WeatherDisplay:10.37,2013-08-04 19:54:00,
2013-08-04 15:55:00,85.6,77.9,30.01,West,277,6.9,6.9,78,0.00,CLR,OVC,0.08,WeatherDisplay:10.37,2013-08-04 19:55:00,
2013-08-04 16:00:00,85.6,77.9,30.01,West,277,6.9,6.9,78,0.00,CLR,OVC,0.08,WeatherDisplay:10.37,2013-08-04 20:00:00,
2013-08-04 16:05:00,86.9,78.8,30.01,SW,222,3.4,3.5,77,0.00,RA,OVC,0.08,WeatherDisplay:10.37,2013-08-04 20:05:00,
2013-08-04 16:10:00,87.3,79.2,30.01,SSW,197,5.8,5.8,77,0.00,CLR,OVC,0.08,WeatherDisplay:10.37,2013-08-04 20:10:00,
2013-08-04 16:14:00,87.4,79.3,30.01,WNW,284,6.0,6.0,77,0.00,CLR,OVC,0.08,WeatherDisplay:10.37,2013-08-04 20:14:00,
2013-08-04 16:20:00,87.4,80.1,30.00,WSW,252,4.6,4.6,79,0.00,CLR,OVC,0.08,WeatherDisplay:10.37,2013-08-04 20:20:00,
2013-08-04 16:24:00,87.7,79.6,30.00,SSE,152,4.6,4.6,77,0.00,CLR,OVC,0.08,WeatherDisplay:10.37,2013-08-04 20:24:00,
2013-08-04 16:29:00,87.3,79.2,30.00,WSW,237,4.6,4.6,77,0.00,CLR,OVC,0.08,WeatherDisplay:10.37,2013-08-04 20:29:00,
2013-08-04 16:35:00,87.0,79.3,30.00,West,279,3.4,3.4,78,0.00,CLR,OVC,0.08,WeatherDisplay:10.37,2013-08-04 20:35:00,
2013-08-04 16:40:00,86.9,79.6,30.01,WSW,239,3.4,3.4,79,0.00,CLR,OVC,0.08,WeatherDisplay:10.37,2013-08-04 20:40:00,
2013-08-04 16:45:00,85.9,76.2,30.01,North,4,12.6,12.6,73,0.00,CLR,OVC,0.08,WeatherDisplay:10.37,2013-08-04 20:45:00,
2013-08-04 16:50:00,83.7,74.5,30.02,ENE,66,4.0,4.3,74,0.00,CLR,OVC,0.08,WeatherDisplay:10.37,2013-08-04 20:50:00,
2013-08-04 16:55:00,81.3,74.9,30.01,North,9,6.9,6.9,81,0.03,RA,OVC,0.11,WeatherDisplay:10.37,2013-08-04 20:55:00,
2013-08-04 17:00:00,79.2,74.3,30.01,North,358,2.3,2.3,85,0.05,RA,OVC,0.13,WeatherDisplay:10.37,2013-08-04 21:00:00,
2013-08-04 17:05:00,78.3,73.4,30.02,North,360,2.3,2.3,85,0.05,-RA,OVC,0.13,WeatherDisplay:10.37,2013-08-04 21:05:00,
2013-08-04 17:10:00,78.0,73.5,30.01,WNW,303,1.1,1.1,86,0.05,-RA,OVC,0.13,WeatherDisplay:10.37,2013-08-04 21:10:00,
2013-08-04 17:15:00,77.7,73.2,30.00,WNW,303,1.1,0.0,86,0.05,-RA,OVC,0.13,WeatherDisplay:10.37,2013-08-04 21:15:00,
2013-08-04 17:20:00,77.6,73.1,30.00,WNW,302,1.1,0.0,86,0.05,-RA,OVC,0.13,WeatherDisplay:10.37,2013-08-04 21:20:00,
2013-08-04 17:25:00,77.7,73.2,30.00,WNW,301,0.0,0.0,86,0.05,-RA,OVC,0.13,WeatherDisplay:10.37,2013-08-04 21:25:00,
2013-08-04 17:30:00,77.8,73.3,30.00,WNW,301,0.0,0.0,86,0.05,-RA,OVC,0.13,WeatherDisplay:10.37,2013-08-04 21:30:00,
2013-08-04 17:35:00,77.9,73.4,30.00,WNW,301,0.0,0.0,86,0.05,-RA,OVC,0.13,WeatherDisplay:10.37,2013-08-04 21:35:00,
2013-08-04 17:40:00,78.1,73.9,30.00,SSE,152,1.1,1.1,87,0.05,-RA,OVC,0.13,WeatherDisplay:10.37,2013-08-04 21:40:00,
2013-08-04 17:45:00,78.2,74.0,30.00,SSE,152,1.1,0.0,87,0.05,-RA,OVC,0.13,WeatherDisplay:10.37,2013-08-04 21:45:00,
2013-08-04 17:49:00,78.4,73.9,29.99,SSE,151,1.1,1.1,86,0.05,-RA,OVC,0.13,WeatherDisplay:10.37,2013-08-04 21:49:00,
2013-08-04 17:54:00,78.7,74.5,29.99,SSE,151,0.0,0.0,87,0.03,-RA,OVC,0.13,WeatherDisplay:10.37,2013-08-04 21:54:00,
2013-08-04 17:59:00,79.2,75.0,29.99,SSE,156,0.0,0.0,87,0.00,-RA,OVC,0.13,WeatherDisplay:10.37,2013-08-04 21:59:00,
2013-08-04 18:04:00,79.7,75.5,29.99,SW,236,1.1,1.1,87,0.00,CLR,OVC,0.13,WeatherDisplay:10.37,2013-08-04 22:04:00,
2013-08-04 18:09:00,79.8,75.2,29.99,SW,234,2.3,2.3,86,0.00,CLR,OVC,0.13,WeatherDisplay:10.37,2013-08-04 22:09:00,
2013-08-04 18:14:00,80.1,75.5,29.99,SSE,165,1.1,1.1,86,0.00,CLR,OVC,0.13,WeatherDisplay:10.37,2013-08-04 22:14:00,
2013-08-04 18:19:00,80.3,75.7,29.99,SSE,147,0.0,0.0,86,0.00,CLR,OVC,0.13,WeatherDisplay:10.37,2013-08-04 22:19:00,
2013-08-04 18:24:00,80.7,76.5,29.99,SSE,151,1.1,0.0,87,0.00,CLR,OVC,0.13,WeatherDisplay:10.37,2013-08-04 22:24:00,
2013-08-04 18:29:00,81.0,76.4,30.00,SSE,159,2.3,2.3,86,0.00,CLR,OVC,0.13,WeatherDisplay:10.37,2013-08-04 22:29:00,
2013-08-04 18:34:00,81.2,76.3,30.00,South,171,1.1,0.0,85,0.00,CLR,OVC,0.13,WeatherDisplay:10.37,2013-08-04 22:34:00,
2013-08-04 18:39:00,81.6,76.6,30.00,SSW,200,1.1,1.1,85,0.00,CLR,OVC,0.13,WeatherDisplay:10.37,2013-08-04 22:39:00,
2013-08-04 18:44:00,82.0,77.0,30.00,SSE,151,1.1,0.0,85,0.00,CLR,OVC,0.13,WeatherDisplay:10.37,2013-08-04 22:44:00,
2013-08-04 18:49:00,82.9,78.6,29.99,SE,143,0.0,0.0,87,0.00,CLR,OVC,0.13,WeatherDisplay:10.37,2013-08-04 22:49:00,
2013-08-04 18:54:00,83.7,79.1,29.99,SE,144,0.0,0.0,86,0.00,CLR,OVC,0.13,WeatherDisplay:10.37,2013-08-04 22:54:00,
2013-08-04 18:59:00,84.6,79.2,29.99,SE,143,0.0,0.0,84,0.00,CLR,OVC,0.13,WeatherDisplay:10.37,2013-08-04 22:59:00,
2013-08-04 19:04:00,85.0,78.9,29.99,ENE,71,1.1,1.1,82,0.01,RA,OVC,0.14,WeatherDisplay:10.37,2013-08-04 23:04:00,
2013-08-04 19:09:00,84.9,78.8,29.99,ENE,71,1.1,0.0,82,0.01,RA,OVC,0.14,WeatherDisplay:10.37,2013-08-04 23:09:00,
2013-08-04 19:14:00,84.1,77.6,29.99,SW,233,3.4,3.4,81,0.01,CLR,OVC,0.14,WeatherDisplay:10.37,2013-08-04 23:14:00,
2013-08-04 19:19:00,83.2,76.8,29.99,SE,139,2.3,2.3,81,0.01,CLR,OVC,0.14,WeatherDisplay:10.37,2013-08-04 23:19:00,
2013-08-04 19:24:00,82.5,76.4,29.99,SW,215,3.4,3.4,82,0.01,CLR,OVC,0.14,WeatherDisplay:10.37,2013-08-04 23:24:00,
2013-08-04 19:29:00,82.1,76.4,29.99,South,190,2.3,2.3,83,0.01,CLR,OVC,0.14,WeatherDisplay:10.37,2013-08-04 23:29:00,
2013-08-04 19:34:00,81.8,76.1,29.99,South,182,2.3,2.3,83,0.01,CLR,OVC,0.14,WeatherDisplay:10.37,2013-08-04 23:34:00,
2013-08-04 19:39:00,81.7,76.4,30.00,South,186,0.0,0.0,84,0.01,CLR,OVC,0.14,WeatherDisplay:10.37,2013-08-04 23:39:00,
2013-08-04 19:44:00,81.5,76.6,30.00,SSW,196,1.1,1.1,85,0.01,CLR,OVC,0.14,WeatherDisplay:10.37,2013-08-04 23:44:00,
2013-08-04 19:49:00,81.4,76.5,30.00,SSW,196,1.1,1.1,85,0.01,CLR,OVC,0.14,WeatherDisplay:10.37,2013-08-04 23:49:00,
2013-08-04 19:54:00,81.3,76.7,30.00,SSW,195,1.1,0.0,86,0.01,CLR,OVC,0.14,WeatherDisplay:10.37,2013-08-04 23:54:00,
2013-08-04 19:59:00,81.1,76.5,30.00,SSW,196,0.0,0.0,86,0.01,CLR,OVC,0.14,WeatherDisplay:10.37,2013-08-04 23:59:00,
2013-08-04 20:04:00,80.9,76.3,30.00,SSW,194,1.1,0.0,86,0.00,CLR,OVC,0.14,WeatherDisplay:10.37,2013-08-05 00:04:00,
2013-08-04 20:09:00,80.7,76.1,30.00,SW,214,1.1,1.1,86,0.00,CLR,OVC,0.14,WeatherDisplay:10.37,2013-08-05 00:09:00,
2013-08-04 20:14:00,80.5,75.9,30.00,SW,218,1.1,1.1,86,0.00,CLR,OVC,0.14,WeatherDisplay:10.37,2013-08-05 00:14:00,
2013-08-04 20:19:00,80.2,76.0,30.00,SW,214,1.0,1.0,87,0.00,CLR,OVC,0.14,WeatherDisplay:10.37,2013-08-05 00:19:00,
2013-08-04 20:24:00,79.9,75.7,30.00,SW,222,1.1,0.0,87,0.00,CLR,OVC,0.14,WeatherDisplay:10.37,2013-08-05 00:24:00,
2013-08-04 20:29:00,79.7,75.5,30.00,SW,220,1.1,0.0,87,0.00,CLR,OVC,0.14,WeatherDisplay:10.37,2013-08-05 00:29:00,
2013-08-04 20:34:00,79.5,75.3,30.01,SSW,204,1.1,1.1,87,0.00,CLR,OVC,0.14,WeatherDisplay:10.37,2013-08-05 00:34:00,
2013-08-04 20:39:00,79.4,75.5,30.01,SSW,211,2.3,2.3,88,0.00,CLR,OVC,0.14,WeatherDisplay:10.37,2013-08-05 00:39:00,
2013-08-04 20:44:00,79.4,75.5,30.01,SSW,201,2.0,2.0,88,0.00,CLR,OVC,0.14,WeatherDisplay:10.37,2013-08-05 00:44:00,
2013-08-04 20:49:00,79.4,75.5,30.01,SSW,196,1.0,0.0,88,0.00,CLR,OVC,0.14,WeatherDisplay:10.37,2013-08-05 00:49:00,
2013-08-04 20:54:00,79.3,75.4,30.00,SW,224,1.1,1.1,88,0.00,CLR,OVC,0.14,WeatherDisplay:10.37,2013-08-05 00:54:00,
2013-08-04 20:59:00,79.2,75.3,30.00,SSW,213,1.1,1.1,88,0.00,CLR,OVC,0.14,WeatherDisplay:10.37,2013-08-05 00:59:00,
2013-08-04 21:04:00,79.2,75.3,30.00,WNW,292,1.1,1.1,88,0.00,CLR,OVC,0.14,WeatherDisplay:10.37,2013-08-05 01:04:00,
2013-08-04 21:09:00,79.2,75.3,30.00,SSW,211,1.1,1.1,88,0.00,CLR,OVC,0.14,WeatherDisplay:10.37,2013-08-05 01:09:00,
2013-08-04 21:16:00,79.2,75.3,30.00,SSW,202,2.0,2.0,88,0.00,CLR,OVC,0.14,WeatherDisplay:10.37,2013-08-05 01:16:00,
2013-08-04 21:21:00,79.2,75.7,30.00,SSW,208,1.1,1.1,89,0.00,CLR,OVC,0.14,WeatherDisplay:10.37,2013-08-05 01:21:00,
2013-08-04 21:26:00,79.3,75.8,30.00,WSW,245,2.0,2.0,89,0.00,CLR,OVC,0.14,WeatherDisplay:10.37,2013-08-05 01:26:00,
2013-08-04 21:31:00,79.3,75.8,30.00,SSW,206,1.1,1.1,89,0.00,CLR,OVC,0.14,WeatherDisplay:10.37,2013-08-05 01:31:00,
2013-08-04 21:36:00,79.3,75.8,30.00,SW,220,0.0,0.3,89,0.00,CLR,OVC,0.14,WeatherDisplay:10.37,2013-08-05 01:36:00,
2013-08-04 21:41:00,79.3,75.8,30.01,WSW,239,1.1,1.1,89,0.00,CLR,OVC,0.14,WeatherDisplay:10.37,2013-08-05 01:41:00,
2013-08-04 21:46:00,79.2,75.7,30.00,SW,236,1.1,0.0,89,0.00,CLR,OVC,0.14,WeatherDisplay:10.37,2013-08-05 01:46:00,
2013-08-04 21:51:00,79.2,75.7,30.01,SW,220,2.0,2.0,89,0.00,CLR,OVC,0.14,WeatherDisplay:10.37,2013-08-05 01:51:00,
2013-08-04 21:56:00,79.1,75.6,30.01,SW,223,1.1,1.1,89,0.00,CLR,OVC,0.14,WeatherDisplay:10.37,2013-08-05 01:56:00,
2013-08-04 22:01:00,79.1,75.6,30.01,SSW,206,1.0,1.0,89,0.00,CLR,OVC,0.14,WeatherDisplay:10.37,2013-08-05 02:01:00,
2013-08-04 22:05:00,79.1,75.6,30.01,SSW,204,1.1,1.1,89,0.00,CLR,OVC,0.14,WeatherDisplay:10.37,2013-08-05 02:05:00,
2013-08-04 22:11:00,79.0,75.5,30.01,SSW,206,0.0,0.0,89,0.00,CLR,OVC,0.14,WeatherDisplay:10.37,2013-08-05 02:11:00,
2013-08-04 22:16:00,79.0,75.5,30.01,SSW,204,1.1,1.1,89,0.00,CLR,OVC,0.14,WeatherDisplay:10.37,2013-08-05 02:16:00,
2013-08-04 22:20:00,78.9,75.4,30.02,SSW,206,0.0,0.0,89,0.00,CLR,OVC,0.14,WeatherDisplay:10.37,2013-08-05 02:20:00,
2013-08-04 22:26:00,78.8,75.3,30.02,SSW,205,0.0,0.0,89,0.00,CLR,OVC,0.14,WeatherDisplay:10.37,2013-08-05 02:26:00,
2013-08-04 22:31:00,78.8,75.3,30.03,SSW,204,0.0,0.0,89,0.00,CLR,OVC,0.14,WeatherDisplay:10.37,2013-08-05 02:31:00,
2013-08-04 22:36:00,78.7,75.2,30.03,SSW,212,0.0,0.0,89,0.00,CLR,OVC,0.14,WeatherDisplay:10.37,2013-08-05 02:36:00,
2013-08-04 22:41:00,78.7,75.2,30.03,SSW,213,1.1,1.1,89,0.00,CLR,OVC,0.14,WeatherDisplay:10.37,2013-08-05 02:41:00,
2013-08-04 22:46:00,78.6,75.1,30.02,SSW,206,0.0,0.0,89,0.00,CLR,OVC,0.14,WeatherDisplay:10.37,2013-08-05 02:46:00,
2013-08-04 22:51:00,78.6,75.4,30.02,SSW,205,0.0,0.0,90,0.00,CLR,OVC,0.14,WeatherDisplay:10.37,2013-08-05 02:51:00,
2013-08-04 22:56:00,78.6,75.4,30.02,SSE,163,1.1,1.1,90,0.00,CLR,OVC,0.14,WeatherDisplay:10.37,2013-08-05 02:56:00,
2013-08-04 23:01:00,78.6,75.4,30.02,South,191,1.1,1.1,90,0.00,CLR,OVC,0.14,WeatherDisplay:10.37,2013-08-05 03:01:00,
2013-08-04 23:06:00,78.6,75.4,30.02,SSW,208,1.1,1.1,90,0.00,CLR,OVC,0.14,WeatherDisplay:10.37,2013-08-05 03:06:00,
2013-08-04 23:11:00,78.5,75.3,30.02,SSW,200,1.1,1.1,90,0.00,CLR,OVC,0.14,WeatherDisplay:10.37,2013-08-05 03:11:00,
2013-08-04 23:16:00,78.5,75.3,30.02,SSW,204,1.1,1.1,90,0.00,CLR,OVC,0.14,WeatherDisplay:10.37,2013-08-05 03:16:00,
2013-08-04 23:20:00,78.4,75.2,30.02,SSW,206,1.0,1.0,90,0.00,CLR,OVC,0.14,WeatherDisplay:10.37,2013-08-05 03:20:00,
2013-08-04 23:26:00,78.4,75.2,30.02,SW,222,1.1,1.1,90,0.00,CLR,OVC,0.14,WeatherDisplay:10.37,2013-08-05 03:26:00,
2013-08-04 23:30:00,78.3,75.1,30.02,SW,222,0.0,0.0,90,0.00,CLR,OVC,0.14,WeatherDisplay:10.37,2013-08-05 03:30:00,
2013-08-04 23:36:00,78.2,75.0,30.02,SW,222,0.0,0.0,90,0.00,CLR,OVC,0.14,WeatherDisplay:10.37,2013-08-05 03:36:00,
2013-08-04 23:41:00,78.1,74.9,30.02,SW,224,1.1,0.0,90,0.00,CLR,OVC,0.14,WeatherDisplay:10.37,2013-08-05 03:41:00,
2013-08-04 23:46:00,78.1,74.9,30.03,West,263,2.0,2.0,90,0.00,CLR,OVC,0.14,WeatherDisplay:10.37,2013-08-05 03:46:00,
2013-08-04 23:51:00,78.0,74.8,30.03,WSW,251,2.3,2.3,90,0.00,CLR,OVC,0.14,WeatherDisplay:10.37,2013-08-05 03:51:00,
2013-08-04 23:56:00,77.9,74.7,30.03,SW,230,1.1,1.1,90,0.00,CLR,OVC,0.14,WeatherDisplay:10.37,2013-08-05 03:56:00,